Theta_e
325 327 327 328 329 330 331 332 332 332 332 333 334 334 335 337 336 335 338 340 342 341 341 342 340 340 338 335 332 334 334 335 334 336 337 337 337 337 337 337 337 338 338 337 337 336 336 337 336 337 338 337 335 335 335 335 335 334 333 334 333 333 334 337 336 335 330 330 333 334 334 336 338 339 339 338 337 337 338 337 337 336 336 336 337
324 323 324 326 326 327 328 329 329 327 327 328 328 331 334 335 334 334 336 338 338 339 339 340 339 339 338 335 334 333 333 332 333 334 335 335 336 336 336 336 336 336 337 337 337 336 335 335 336 335 336 336 336 336 334 334 333 333 332 331 333 331 331 335 335 334 330 328 326 327 331 335 339 340 337 336 336 336 336 336 336 336 335 336 336
320 321 322 323 324 324 325 325 326 326 326 326 328 328 330 331 331 330 331 333 334 336 337 337 339 338 337 334 333 331 333 333 332 332 333 332 333 333 334 334 335 335 336 336 336 336 336 336 335 336 336 335 335 335 335 334 334 332 333 330 329 332 332 335 335 334 330 332 331 327 325 324 330 333 334 334 336 337 337 335 335 335 334 336 336
318 319 319 321 322 323 323 323 324 325 325 325 326 326 326 327 328 328 329 330 332 333 335 336 336 336 335 334 333 332 330 332 331 332 331 331 329 331 331 332 332 332 333 334 334 334 334 334 336 336 335 335 335 333 333 332 333 333 332 332 331 328 331 331 336 336 336 330 322 323 323 324 319 325 328 331 335 336 336 334 335 334 335 335 336
317 318 319 319 319 320 320 321 322 322 322 323 324 324 324 325 326 327 328 328 330 332 333 336 336 334 332 331 331 331 330 329 329 328 328 329 328 328 329 330 330 329 330 330 331 331 332 332 333 333 333 333 333 332 332 332 333 333 332 331 331 328 327 330 334 335 334 336 329 322 322 320 321 323 325 326 334 332 333 335 334 334 334 334 335
318 316 316 317 318 318 319 319 319 320 320 321 322 323 323 323 324 325 326 327 329 331 333 334 334 333 331 329 327 326 324 324 324 324 324 324 325 328 326 327 327 327 327 327 328 329 327 328 329 329 330 331 331 331 330 330 330 331 331 330 330 331 327 328 328 334 336 334 333 332 328 320 320 324 323 318 331 333 333 334 335 335 335 334 334
316 316 316 316 317 317 317 318 319 318 319 321 321 321 322 322 323 324 325 326 327 329 331 333 331 330 330 328 328 326 324 323 324 325 324 324 325 324 324 326 326 325 324 324 324 324 324 324 324 325 326 326 326 326 325 325 326 327 330 330 330 330 330 326 326 328 332 333 333 333 333 333 331 325 319 321 317 326 331 331 332 333 334 333 332
315 315 315 316 317 316 316 317 318 318 319 320 320 320 320 321 321 322 323 324 325 327 328 329 328 328 327 326 325 324 323 321 322 322 323 323 322 322 324 324 325 322 320 319 319 319 320 319 320 320 321 323 324 323 324 325 325 326 327 327 329 329 329 327 327 328 326 327 332 330 330 332 332 332 328 321 318 316 319 328 332 332 333 333 332
315 314 314 315 314 315 316 316 317 318 319 319 319 319 319 320 320 321 321 322 324 325 325 325 326 325 325 324 322 322 322 321 321 321 320 321 320 321 322 322 323 321 317 315 315 316 316 315 316 315 316 318 319 319 320 321 322 323 323 324 326 327 328 329 327 327 327 325 326 327 328 328 329 329 327 326 321 318 318 321 323 329 333 332 333
315 315 314 314 314 314 316 316 316 316 317 318 319 319 319 319 319 319 319 320 322 323 323 323 323 323 322 321 320 319 320 319 319 317 318 319 319 320 321 321 321 320 318 315 314 314 315 314 313 314 314 315 315 315 315 317 318 321 323 324 324 324 327 327 326 327 327 327 327 326 325 326 326 326 326 325 323 324 317 318 322 322 321 326 333
314 314 314 314 315 315 315 315 315 316 317 317 317 317 317 317 317 317 317 318 319 320 321 321 321 321 320 319 318 317 317 317 316 316 316 317 318 318 319 319 319 316 315 314 313 313 313 313 312 312 313 314 312 312 313 314 315 317 320 322 323 322 323 325 325 326 327 326 326 326 325 324 322 321 321 322 322 320 320 320 322 322 321 321 327
312 312 312 313 314 314 315 315 316 317 318 317 317 316 316 316 316 316 316 317 317 318 318 318 317 317 317 316 315 315 315 314 314 313 314 314 315 315 316 316 316 314 312 310 310 311 311 310 310 309 309 310 309 309 311 310 311 313 316 317 318 319 321 321 321 322 322 324 326 327 326 326 325 324 324 324 322 321 321 320 320 322 323 324 326
311 311 312 313 313 313 314 314 316 317 316 316 316 316 316 315 315 314 314 316 316 316 316 315 315 314 314 314 313 313 313 313 313 313 314 313 314 314 314 313 314 313 311 309 309 309 309 309 308 307 306 307 308 308 308 309 309 310 312 313 313 314 315 315 315 317 319 320 322 325 326 326 326 328 328 326 325 325 323 319 322 325 321 322 325
311 312 312 312 313 313 313 314 314 315 316 315 316 316 316 315 314 313 313 315 315 314 314 313 313 313 313 313 312 312 313 313 313 312 312 313 313 312 312 312 312 312 311 309 309 308 308 308 308 307 307 307 307 307 308 308 307 308 309 308 308 310 310 309 311 313 314 317 318 319 322 323 325 327 327 326 325 323 321 321 321 321 324 321 325
311 311 311 312 313 314 313 313 312 313 314 314 314 315 315 314 313 313 312 313 313 313 313 312 312 312 312 312 312 312 311 311 311 311 311 311 311 311 310 311 310 310 309 310 308 307 307 307 307 306 306 306 306 306 306 306 307 307 307 306 307 307 306 307 308 309 309 311 313 315 317 320 322 324 325 325 326 325 323 323 322 317 319 323 321
310 310 311 312 312 313 312 312 312 312 313 314 314 314 313 312 312 312 312 312 312 312 311 311 311 311 311 310 310 310 310 310 309 310 310 310 310 310 309 310 310 310 310 308 307 306 306 305 305 305 305 305 305 305 305 305 306 305 304 305 304 306 305 306 307 308 308 310 311 314 314 316 318 320 321 322 323 325 325 325 324 322 317 315 319
310 311 311 311 311 312 312 312 312 313 313 313 313 313 312 312 312 311 311 312 311 311 311 311 311 311 310 310 309 309 308 308 307 308 308 308 308 308 308 308 309 309 308 307 306 305 305 305 305 304 304 305 305 304 304 305 305 305 304 304 304 304 305 305 306 306 308 309 310 312 312 313 315 317 318 318 319 321 324 325 325 323 322 318 316
311 311 310 309 310 310 311 311 312 312 312 311 311 312 313 313 313 311 311 310 310 310 310 310 310 309 309 309 309 308 307 307 307 307 307 307 306 307 307 306 306 306 306 306 305 305 304 305 304 304 304 304 304 304 304 304 304 304 305 305 305 305 305 305 306 307 307 308 309 310 311 312 314 315 315 317 319 320 323 325 325 325 327 320 320
310 309 308 308 308 309 310 310 311 311 311 311 312 312 312 312 312 311 310 310 310 310 310 310 310 309 309 309 308 307 307 307 307 307 307 305 305 305 305 304 305 305 305 304 304 303 303 303 303 303 303 303 303 303 303 303 304 303 304 304 305 305 305 305 306 307 307 308 308 308 310 311 312 311 312 314 315 316 317 318 319 323 326 326 321
308 307 307 307 308 309 309 309 309 310 311 312 312 311 311 310 310 309 309 310 309 309 309 309 309 309 309 309 308 307 307 306 306 306 305 304 303 304 304 304 304 305 304 304 303 302 302 302 302 302 302 302 302 302 302 302 303 302 303 303 304 305 304 305 305 306 307 307 307 307 308 308 308 308 309 311 311 312 312 312 313 315 318 321 322
306 306 306 307 308 308 308 309 309 311 311 311 311 310 309 309 309 309 308 308 308 308 308 308 308 308 308 307 307 307 306 306 306 305 304 303 303 304 303 304 304 303 303 303 302 302 302 302 302 301 301 301 301 301 301 302 301 301 302 302 303 303 303 304 305 305 307 306 306 305 306 306 306 306 307 308 308 309 309 309 309 310 311 315 317
306 306 306 307 307 308 308 310 310 310 309 309 309 309 308 307 307 308 308 307 307 306 306 306 307 307 306 306 306 306 304 304 304 304 304 303 303 303 304 303 303 303 303 302 302 302 302 302 301 301 301 301 301 301 301 301 300 300 301 302 302 302 302 302 303 303 304 305 305 304 304 304 305 305 306 305 306 306 306 306 305 305 307 309 312
305 305 305 306 306 307 308 309 309 308 308 308 308 307 307 307 307 307 307 306 307 306 305 305 305 305 305 305 305 304 303 303 303 303 302 303 303 303 303 302 302 302 303 302 302 302 301 301 301 301 300 300 300 300 301 300 300 300 300 300 301 301 301 301 301 302 302 303 303 303 303 303 304 304 304 304 304 304 304 303 303 304 304 305 307
304 304 305 305 306 307 307 307 306 306 306 306 306 306 306 307 306 306 306 306 305 305 304 304 304 304 304 304 303 303 303 303 302 302 302 302 302 302 302 302 302 302 301 302 302 301 301 301 300 300 299 299 300 300 300 300 300 300 300 299 300 300 301 301 301 301 301 302 302 301 302 302 302 302 302 302 302 302 301 301 301 302 302 302 304
303 303 304 305 306 306 306 306 305 305 305 306 306 306 306 305 306 305 305 305 305 304 303 303 303 303 303 303 303 302 302 302 302 302 302 302 302 302 303 301 302 301 301 301 302 302 301 300 300 299 299 299 299 299 299 299 299 300 300 300 300 300 300 300 300 300 301 301 301 301 301 301 301 301 301 300 300 300 299 299 299 300 300 300 301
302 302 303 304 305 306 306 306 305 304 304 305 305 305 305 305 305 306 305 305 304 304 304 303 303 302 302 302 302 302 301 301 301 302 302 301 301 301 301 301 300 300 300 300 301 301 301 300 299 299 299 299 299 299 299 299 299 299 300 300 300 300 300 300 300 300 300 300 300 300 300 300 300 299 299 299 300 299 298 297 297 298 298 299 299
301 302 304 305 305 305 305 305 304 304 304 304 304 304 304 304 305 305 305 305 305 304 303 303 302 302 301 301 302 302 302 301 301 300 300 299 299 299 299 298 299 299 299 299 300 300 300 300 300 300 299 299 299 299 298 298 298 299 299 299 299 299 299 300 300 300 300 300 300 299 299 299 299 299 299 298 298 297 297 297 297 297 297 297 297
302 303 303 304 304 304 304 304 304 303 304 304 304 304 304 304 304 304 304 304 304 304 302 302 302 301 301 301 301 302 301 299 299 298 298 298 298 298 298 298 298 298 298 298 298 299 300 300 300 299 299 300 299 298 297 297 298 298 299 299 299 299 299 299 299 299 300 299 299 299 299 299 299 299 299 298 297 295 295 295 296 296 296 295 295
301 302 303 303 302 303 303 303 303 303 303 303 303 304 304 304 304 303 303 303 304 303 302 301 301 300 300 301 301 301 299 298 298 298 298 298 298 298 298 298 298 298 298 298 299 299 298 299 299 299 299 299 299 298 297 296 296 297 299 299 299 298 298 298 298 298 298 298 299 299 299 299 300 300 298 298 297 296 295 293 294 295 295 295 295
301 302 302 303 302 302 303 303 302 302 302 302 302 302 303 302 302 301 301 302 303 302 301 300 300 300 300 300 299 299 297 298 298 297 298 298 298 298 298 297 297 297 298 298 298 298 298 298 298 298 299 299 298 298 296 294 294 296 298 299 299 298 298 298 298 297 297 298 298 298 298 300 299 298 297 296 295 294 295 295 294 294 294 294 294
301 302 302 302 302 302 302 302 302 302 302 302 303 303 303 302 301 300 300 301 302 301 300 300 299 299 299 299 298 297 298 297 298 298 298 297 297 297 297 297 297 297 297 298 298 297 298 298 298 298 298 299 298 297 293 292 292 292 296 299 298 297 298 298 298 297 296 297 297 297 297 298 298 297 297 295 294 294 293 293 293 294 295 295 295
301 301 301 301 301 302 302 302 302 303 303 302 302 302 301 300 300 299 300 301 301 300 299 298 298 298 299 298 297 297 297 297 297 296 297 297 297 297 296 296 296 297 297 297 297 297 297 298 298 298 298 298 298 294 291 292 292 292 293 297 298 297 297 298 297 296 296 296 295 295 296 296 296 296 296 295 295 294 293 293 293 293 293 293 294
301 301 301 301 301 302 302 302 302 302 302 302 302 301 299 299 299 299 300 300 299 298 298 297 298 298 298 298 297 297 297 297 296 297 297 297 296 296 296 296 295 296 297 296 296 297 297 297 298 297 298 298 299 293 291 292 292 291 291 295 298 298 297 297 297 296 296 295 295 294 294 295 295 297 297 295 294 294 294 293 294 295 295 295 293
301 301 301 302 302 302 302 302 302 303 303 302 302 300 300 300 300 300 299 298 297 297 297 297 297 297 297 297 297 297 296 296 297 297 296 296 296 296 296 296 296 296 296 296 296 296 297 297 297 298 298 298 298 294 291 291 292 291 291 293 298 298 298 297 296 296 296 295 295 294 293 294 294 295 295 294 293 293 293 294 296 297 298 298 296
301 301 301 301 302 302 302 301 302 302 302 301 300 300 300 299 299 299 298 297 297 296 296 296 296 297 297 297 297 296 296 296 296 297 296 296 296 296 296 296 296 295 295 295 295 296 296 297 297 298 298 298 297 292 291 291 291 291 291 294 298 297 297 296 297 296 296 295 295 294 294 294 294 294 294 293 292 292 292 293 294 295 296 298 298
301 302 302 301 301 301 301 301 302 301 301 300 300 300 299 298 299 298 298 297 297 296 296 296 296 296 297 297 297 296 296 296 296 296 296 295 296 296 295 296 296 296 296 296 296 296 296 296 297 297 297 297 298 292 291 291 291 291 292 297 297 296 296 296 296 296 296 296 295 295 294 293 293 294 294 291 291 292 292 292 292 294 295 296 297
303 303 302 302 302 301 302 301 301 301 300 300 300 300 299 298 298 298 297 297 297 296 296 297 296 297 297 297 297 296 296 296 296 296 295 295 295 295 295 296 295 295 295 295 295 295 296 296 296 296 296 297 298 294 290 290 291 290 294 297 297 296 296 295 295 296 296 296 296 295 295 294 293 294 292 289 290 291 292 292 292 292 293 294 295
302 302 302 302 302 302 302 301 301 301 300 300 300 300 299 298 298 298 297 297 296 296 297 297 297 297 297 297 297 297 296 296 296 295 296 296 296 296 296 296 295 295 294 295 295 295 295 295 295 295 295 296 297 295 291 290 290 290 293 297 296 295 295 295 295 296 296 296 296 296 296 295 293 294 290 289 290 291 291 291 291 290 291 292 293
301 301 301 301 301 301 301 301 301 299 300 300 300 300 299 298 298 297 297 296 296 297 297 297 297 298 298 298 298 297 297 297 296 296 297 296 296 296 296 297 296 296 295 296 295 295 295 295 296 296 294 296 297 296 292 290 290 290 293 297 296 295 294 294 294 294 295 295 295 296 295 294 293 292 289 290 289 291 291 291 290 290 289 289 291
300 301 301 301 301 301 300 299 299 299 300 300 300 299 299 298 298 298 297 296 297 297 298 299 299 299 299 298 299 298 298 297 296 297 297 297 297 297 296 296 296 296 295 295 295 295 295 295 296 296 296 297 296 297 296 290 290 290 291 295 296 294 294 294 294 294 293 294 295 295 295 292 290 289 289 289 289 290 291 291 291 289 288 287 291
299 300 300 300 300 299 298 298 299 300 300 300 300 299 298 299 299 298 297 298 299 300 299 299 300 299 299 298 299 298 298 298 298 297 297 297 297 297 297 296 296 296 296 295 295 295 295 295 296 296 296 297 296 296 296 291 290 290 290 292 297 295 295 294 294 294 294 293 294 294 295 292 289 289 289 289 290 290 290 291 290 289 289 290 291
300 300 300 300 299 299 299 299 300 299 300 300 299 299 298 298 298 298 299 301 300 300 300 300 299 298 299 299 299 300 300 299 298 298 297 297 297 297 297 297 296 296 296 296 296 295 295 294 295 295 296 296 296 294 295 293 290 290 290 290 294 295 293 295 294 294 294 294 294 294 294 292 289 289 289 289 289 290 290 292 290 289 289 289 291
298 299 300 299 298 298 298 299 299 299 299 299 299 298 298 299 298 299 300 300 301 301 300 299 299 299 299 299 300 300 300 300 299 298 298 297 297 297 297 297 297 296 296 296 295 296 295 295 295 295 295 296 296 296 293 294 291 290 290 290 289 292 290 295 295 295 294 294 295 295 294 291 289 289 289 289 290 290 291 291 289 289 289 289 290
299 299 299 299 298 299 299 299 299 299 299 299 299 298 298 298 298 301 300 301 301 301 300 300 299 299 299 299 299 300 300 300 299 298 298 298 297 297 297 297 297 296 295 295 295 295 295 294 294 294 294 295 296 296 294 292 293 290 290 289 289 289 289 293 296 295 295 295 294 294 293 289 289 289 289 289 290 290 290 289 289 289 289 290 291
298 298 299 299 298 298 298 298 298 299 299 299 300 299 299 298 300 299 300 300 300 300 300 299 299 299 299 299 300 299 300 299 300 299 298 297 297 298 296 297 297 296 295 295 294 295 294 294 294 293 294 294 295 296 296 294 291 291 290 290 289 289 290 289 295 296 296 295 291 289 289 289 289 290 290 290 291 291 289 289 289 289 291 291 290
299 299 299 299 299 298 298 297 298 298 299 300 300 300 298 300 299 300 300 301 300 300 300 300 299 299 299 298 299 298 299 299 299 299 299 298 298 297 297 297 296 296 295 295 294 294 294 294 294 293 293 294 295 295 295 296 295 294 293 291 290 290 291 291 292 294 291 290 290 290 290 290 291 292 294 294 293 292 290 290 290 291 291 291 290
297 298 298 297 297 296 296 297 297 298 299 299 300 300 301 301 299 300 300 301 301 300 300 300 300 300 300 299 299 298 298 299 299 299 299 299 298 298 298 296 297 296 296 295 295 294 294 294 293 293 294 294 294 294 294 295 295 295 296 296 296 296 293 293 295 296 294 295 294 293 293 291 292 290 291 291 291 291 292 292 292 292 291 291 291
298 297 296 296 296 296 297 297 297 296 297 298 298 299 300 299 299 299 300 301 300 300 300 300 300 300 299 299 299 293 296 299 299 299 298 298 298 298 297 297 296 296 295 295 295 294 293 294 293 294 294 294 293 293 293 293 294 294 294 295 295 295 295 296 294 294 295 296 296 292 293 296 295 295 294 294 294 293 292 291 291 291 291 291 291
296 296 296 295 296 295 296 296 295 295 296 297 298 299 298 300 299 299 299 300 300 299 300 300 300 300 300 299 300 300 299 299 299 300 300 300 299 299 298 298 299 298 298 297 296 295 296 296 295 294 293 293 293 292 293 290 292 289 290 293 294 293 293 294 292 289 294 296 295 294 294 293 293 291 291 292 293 293 292 292 291 290 290 290 290
296 296 296 296 296 296 295 296 296 297 297 298 299 298 298 298 298 299 300 300 299 299 299 299 299 300 300 299 300 300 300 300 299 298 298 300 292 291 296 299 298 292 286 287 289 295 296 296 296 296 296 293 293 293 289 288 288 288 288 288 288 288 288 290 289 288 292 293 292 292 292 292 292 291 291 290 291 291 290 291 291 288 289 289 289
295 295 295 295 295 296 296 297 297 297 297 298 298 298 298 298 298 298 299 300 299 298 299 300 299 299 298 300 300 300 300 300 300 299 299 297 298 298 288 287 290 291 290 287 284 285 285 286 291 295 295 289 288 288 288 288 288 288 288 288 288 288 288 288 288 290 292 291 291 291 291 291 290 291 290 290 291 290 290 290 290 290 290 288 287
Wind_Speed
7 9 9 11 10 9 10 10 10 10 10 10 12 11 9 8 9 10 7 7 5 5 4 3 3 4 6 6 7 6 6 6 6 5 5 5 6 5 6 5 5 5 5 5 5 4 4 4 4 4 4 4 4 4 5 5 5 5 5 5 6 7 6 4 5 4 7 7 6 8 8 8 9 8 8 7 7 7 7 7 8 8 9 10 10
8 9 9 10 9 10 8 7 9 11 8 8 8 9 10 10 11 8 6 7 7 6 4 4 4 4 5 6 7 5 5 5 6 6 6 6 7 7 7 7 7 7 6 6 5 5 5 4 5 5 4 4 3 4 4 4 5 5 5 5 4 6 5 5 5 4 4 6 10 10 9 6 5 5 6 7 7 7 7 8 8 9 10 10 9
8 7 9 10 11 11 9 9 8 7 8 8 6 9 9 9 8 6 6 6 7 5 5 6 5 5 5 6 6 7 7 7 7 7 7 8 8 8 8 8 8 8 7 7 6 7 7 6 6 5 5 4 4 3 4 5 4 5 5 4 5 4 4 4 5 4 5 8 8 8 8 10 2 4 3 6 6 6 6 8 9 9 11 10 9
5 6 9 8 10 9 7 8 6 6 8 7 7 9 6 8 6 6 6 6 6 6 7 7 8 9 9 8 7 7 6 6 7 7 7 8 9 8 8 8 9 9 9 8 8 8 8 8 7 7 7 7 6 5 5 5 5 5 5 5 6 7 5 3 4 5 4 6 7 5 8 7 10 3 6 8 7 7 7 9 8 9 10 10 9
2 8 9 8 11 10 9 8 6 8 8 7 6 6 5 7 6 6 7 6 6 5 5 7 8 8 7 6 5 4 3 4 5 7 7 7 8 9 8 9 9 8 9 9 8 8 8 7 8 7 7 7 6 6 5 5 5 5 6 6 6 6 8 5 5 6 6 3 5 7 5 5 6 9 11 10 4 4 7 8 9 10 10 10 9
5 5 9 10 12 10 10 8 9 8 8 6 6 7 7 6 6 7 6 6 6 6 5 4 4 6 4 4 4 4 4 4 6 5 6 7 7 6 8 9 8 8 8 9 9 8 8 8 8 7 7 7 7 7 6 7 7 7 7 7 7 6 7 8 8 6 7 7 5 6 7 8 10 10 8 7 3 7 9 8 8 10 10 11 10
7 6 9 12 10 10 8 7 6 8 6 5 6 7 8 7 8 8 7 6 6 6 5 4 6 5 5 5 5 5 5 5 4 4 5 4 3 5 7 8 9 8 8 8 9 8 8 8 8 7 7 7 7 7 7 7 7 7 7 7 7 7 7 8 9 8 8 7 7 8 9 9 10 9 8 12 12 6 5 7 8 9 10 11 11
9 8 10 10 8 8 9 6 6 6 5 5 6 7 10 9 8 8 7 7 6 5 7 6 6 6 6 7 6 6 5 5 4 4 4 3 5 6 6 7 8 8 8 9 8 8 7 7 7 7 7 7 6 7 6 6 6 6 7 8 7 6 8 9 10 9 8 9 7 9 8 9 9 11 12 11 11 13 13 8 8 9 9 10 11
5 8 9 10 9 8 7 7 6 7 6 7 8 8 8 9 9 9 8 7 7 8 8 8 7 7 6 6 6 6 5 5 4 3 3 4 6 6 6 6 7 9 9 9 8 8 8 7 7 7 7 7 6 5 6 6 7 7 9 8 8 8 7 7 9 8 8 9 10 9 9 10 10 11 12 10 10 13 15 12 12 9 9 10 10
8 7 9 9 8 8 7 7 8 7 6 8 8 8 9 9 10 10 9 7 7 10 10 10 9 8 8 7 7 6 4 4 4 4 5 5 7 7 6 7 7 7 9 9 8 8 8 8 7 7 7 6 6 6 6 6 7 7 7 8 9 9 6 8 9 9 8 9 8 9 9 9 9 8 7 9 11 11 13 17 13 13 14 11 8
9 9 10 9 8 9 8 8 8 8 7 7 8 8 8 9 10 11 9 8 9 9 10 11 10 9 8 8 8 7 6 5 5 6 6 7 7 7 7 7 7 8 8 8 9 9 8 9 8 8 7 6 7 7 6 6 6 6 5 6 6 7 7 9 8 8 8 9 10 9 9 8 9 10 10 10 10 11 12 15 16 15 14 16 12
9 8 10 10 10 8 9 9 8 9 8 9 8 8 9 9 10 11 10 10 9 9 10 10 9 9 9 8 8 7 6 5 6 7 7 7 7 6 6 6 7 7 7 7 9 9 8 8 9 9 8 8 8 7 6 7 7 6 6 7 6 7 7 7 7 8 10 9 10 9 9 9 10 10 10 11 11 12 12 15 16 15 13 11 12
9 8 10 10 9 9 8 8 8 8 8 9 9 8 9 9 10 11 10 9 10 10 12 11 10 9 8 8 7 6 6 6 6 7 6 6 5 6 6 6 6 6 7 8 8 9 7 8 8 8 7 7 7 7 7 8 7 7 8 8 8 9 8 10 8 9 9 9 8 9 9 9 10 9 9 10 11 11 11 13 15 13 13 15 13
10 10 10 9 8 9 8 7 7 6 8 9 9 8 8 9 9 11 10 9 10 12 12 12 12 10 9 8 7 6 7 7 7 7 7 6 6 6 6 6 7 7 7 8 7 8 8 7 7 7 7 7 8 8 8 8 9 8 8 9 9 8 9 10 9 11 10 10 10 9 10 10 10 10 10 10 10 11 11 13 14 13 12 14 13
11 11 10 8 9 10 9 6 6 5 7 8 7 8 8 8 9 10 10 10 12 12 12 13 11 11 10 9 8 7 8 7 7 7 8 8 7 8 7 7 7 7 7 7 8 9 9 8 9 9 8 8 8 9 8 8 9 9 8 9 9 9 10 10 9 10 9 11 11 10 9 9 10 10 10 10 10 10 11 12 13 16 14 12 13
11 11 10 9 8 10 9 8 7 7 8 8 9 8 8 8 9 10 10 10 12 13 12 11 11 9 10 10 9 9 8 8 7 8 8 8 8 8 8 8 8 7 8 8 9 9 9 9 9 9 9 9 9 10 10 8 10 9 9 9 10 8 9 10 9 9 10 12 11 10 10 9 9 9 9 10 10 11 11 10 10 12 12 13 13
12 11 10 11 8 7 8 9 7 7 7 7 8 8 8 8 9 11 11 11 12 12 12 11 10 10 10 10 9 9 9 9 8 9 8 8 9 9 8 9 9 8 7 7 8 9 9 8 8 8 9 9 10 10 10 10 10 9 9 10 10 10 9 9 9 9 10 10 10 12 9 9 9 10 9 9 10 10 11 11 10 11 10 13 12
14 12 9 9 8 8 8 7 8 8 8 9 9 8 7 7 9 11 11 12 11 11 11 10 10 11 11 11 10 9 8 8 8 8 8 9 9 9 9 9 10 8 7 7 8 9 9 9 8 9 9 10 10 10 10 10 10 10 11 10 11 11 11 9 9 10 10 10 10 11 10 9 9 10 10 11 9 10 11 12 12 11 10 13 13
14 11 9 8 7 7 8 9 10 9 9 10 9 9 9 9 9 11 12 11 11 9 10 9 10 9 9 10 9 9 9 8 8 9 9 10 10 10 11 10 8 8 9 9 9 9 9 9 9 10 10 11 11 11 11 10 10 10 12 11 12 13 12 12 11 11 11 11 12 11 10 9 10 11 11 10 10 10 12 12 12 14 12 11 11
13 10 9 9 8 8 9 10 11 10 10 9 10 9 10 10 11 11 11 11 11 11 10 10 10 10 9 10 10 9 9 10 10 10 10 11 11 10 10 10 9 9 9 10 9 10 10 10 10 11 12 12 13 12 11 11 10 10 11 11 12 13 13 12 12 11 9 11 12 12 11 10 11 10 10 11 11 10 9 10 11 10 12 13 13
9 9 10 10 9 9 10 10 9 9 9 9 10 10 9 9 11 10 11 11 10 9 9 9 9 9 10 11 10 10 11 10 11 11 11 11 10 10 9 8 9 10 9 10 10 10 10 10 11 12 12 12 13 12 11 10 10 11 11 12 12 13 13 11 11 12 11 11 11 12 11 11 12 11 10 11 11 12 12 11 11 10 10 12 12
10 10 10 9 9 10 11 10 9 9 9 10 10 10 10 10 9 9 9 9 10 9 9 9 9 8 10 11 11 10 10 10 11 11 11 11 10 10 9 9 10 9 9 9 10 9 9 10 11 12 12 12 12 12 11 10 11 11 11 10 12 13 14 14 13 13 13 11 11 12 12 12 11 11 12 12 11 12 12 12 12 11 11 12 11
12 11 9 9 9 11 12 12 11 10 10 10 9 9 9 10 10 9 10 10 9 9 9 9 9 9 10 10 10 10 10 11 12 11 12 10 10 10 9 10 9 9 9 9 9 9 10 10 11 11 12 12 12 12 11 11 11 12 12 11 11 12 13 13 13 13 14 13 13 13 13 13 10 12 12 11 12 12 12 12 13 11 12 12 12
10 9 9 9 10 11 12 12 11 10 10 9 9 9 9 9 10 10 11 10 10 10 10 10 10 11 11 11 11 10 11 11 11 10 12 11 9 9 9 10 9 8 9 8 9 10 10 10 11 12 12 12 12 12 11 11 11 11 12 12 12 11 11 12 13 13 14 14 14 14 14 14 13 13 13 13 11 12 12 12 13 12 12 13 12
11 11 12 11 11 12 12 11 11 10 9 8 9 10 10 10 9 10 10 10 10 10 10 10 11 11 11 11 11 10 11 11 11 10 11 10 9 8 8 9 9 9 9 8 8 8 9 10 10 12 12 13 13 12 12 12 11 10 11 11 12 11 11 11 11 12 13 14 14 14 15 14 13 13 13 14 14 16 13 12 13 13 12 13 12
13 12 12 13 12 11 11 11 10 10 10 9 10 11 10 10 10 9 10 10 10 9 9 10 9 10 11 11 10 10 11 11 10 9 10 9 9 9 9 8 9 9 9 9 9 8 8 9 10 11 12 13 14 12 13 12 12 11 11 10 10 11 11 10 11 11 12 13 13 14 14 14 14 14 14 14 15 17 15 14 15 14 13 13 14
13 13 11 11 12 13 13 12 11 11 10 10 11 12 11 10 10 9 9 9 9 9 9 9 9 10 10 10 10 9 9 9 9 9 9 9 9 9 9 9 8 9 9 9 9 9 8 8 9 10 11 13 13 15 14 14 12 11 11 10 11 11 11 10 11 12 12 12 14 14 14 14 14 14 14 15 15 16 13 16 15 15 15 15 14
10 11 14 14 13 13 13 13 12 11 10 11 11 11 11 10 9 9 9 8 7 9 9 9 9 9 9 9 8 8 9 9 9 9 10 10 10 10 9 9 9 9 10 10 9 9 8 8 9 10 12 12 14 14 15 14 12 11 11 11 11 11 11 12 12 12 12 13 13 13 13 14 14 13 14 14 15 15 14 15 15 15 16 16 15
14 13 13 15 14 13 14 13 13 13 13 12 11 10 9 8 8 8 8 8 8 9 9 9 9 9 8 8 8 7 8 9 9 10 10 10 10 9 9 9 9 9 8 9 9 9 9 9 9 11 12 12 13 13 13 14 14 13 12 11 12 12 12 12 12 12 13 14 14 14 13 14 15 18 20 17 17 16 14 16 17 17 17 16 15
15 14 14 14 14 14 14 14 13 14 13 12 11 10 10 9 8 8 8 8 8 9 9 9 9 8 8 8 9 8 9 8 9 10 9 9 9 9 9 10 10 9 9 8 9 9 9 10 10 12 12 11 12 12 16 19 16 13 13 11 11 12 13 12 12 12 13 15 14 14 14 20 20 20 20 17 16 17 20 18 16 16 17 16 15
14 15 15 14 14 14 15 14 13 14 14 12 10 10 9 9 8 8 8 8 9 9 9 9 8 8 8 9 8 8 8 9 9 9 9 10 10 9 9 10 9 9 9 9 9 10 10 10 11 12 12 11 11 12 18 17 17 19 14 11 12 13 13 13 13 15 15 15 15 15 14 16 17 18 19 19 17 19 18 18 20 21 18 15 15
15 15 15 15 15 15 15 14 13 13 13 11 10 10 10 9 9 9 8 8 9 9 9 9 8 9 9 9 8 9 9 9 9 10 10 10 10 10 10 10 9 10 9 9 10 10 10 9 9 12 12 11 11 17 16 17 16 17 16 12 11 12 12 12 14 15 14 14 15 15 14 14 14 18 18 18 21 23 21 20 20 19 18 17 15
16 17 16 16 16 15 14 13 12 12 12 12 12 11 11 10 10 9 8 9 9 9 9 9 9 9 9 8 8 8 9 9 9 10 9 9 10 10 10 9 10 9 9 10 10 10 10 9 9 11 11 11 11 16 15 17 16 17 17 14 11 12 13 14 14 15 15 15 14 14 15 14 15 23 19 19 20 21 22 23 20 19 17 15 14
16 16 16 15 13 12 13 14 13 12 12 12 12 12 11 10 10 10 10 10 10 10 10 10 10 10 9 8 8 9 10 9 9 9 9 9 9 10 9 8 8 9 9 10 10 11 9 9 9 9 10 10 12 13 15 17 17 18 17 14 11 14 14 14 15 15 14 15 15 15 15 16 17 18 17 20 21 20 20 19 18 17 16 18 16
17 16 15 15 15 14 14 13 12 12 12 12 11 11 11 11 11 11 10 11 11 11 11 10 10 9 9 9 9 9 10 9 9 8 9 9 9 9 9 8 8 9 9 9 8 9 8 8 8 8 8 10 9 15 16 17 17 18 18 13 14 12 13 15 15 15 15 14 15 14 16 16 17 17 17 21 21 21 20 17 17 17 18 17 17
17 18 16 16 16 16 15 13 12 12 12 12 12 11 12 11 11 11 11 11 11 11 11 9 10 9 9 9 9 9 9 8 8 8 9 9 9 9 9 8 8 8 8 7 7 7 8 9 9 9 8 9 9 14 16 16 16 18 18 12 14 14 15 15 15 15 14 13 14 15 16 17 18 18 22 24 23 20 19 18 18 18 18 17 16
16 17 16 15 16 16 15 14 13 12 13 12 12 12 12 11 11 11 11 11 11 11 10 9 9 8 8 8 8 9 8 8 8 8 9 8 8 9 8 7 8 8 8 7 7 7 7 8 9 9 9 8 9 12 15 16 16 18 14 13 14 15 13 15 15 15 14 14 14 16 16 17 19 19 23 23 23 23 18 18 18 18 17 16 16
15 14 14 15 15 15 14 14 14 14 13 12 12 12 12 12 11 11 11 11 11 10 9 9 8 8 8 7 8 8 8 7 7 8 8 7 7 7 7 6 7 7 8 7 6 7 7 8 9 9 9 9 9 10 14 16 16 17 16 13 14 14 15 16 15 15 14 14 16 21 19 18 19 20 23 23 23 22 19 17 17 18 18 18 17
17 18 17 17 16 17 16 15 15 14 12 13 13 14 12 12 11 11 11 11 10 10 9 9 8 7 7 7 7 7 7 7 8 7 6 7 7 6 5 5 5 6 7 7 7 8 8 8 8 8 10 10 9 9 13 15 17 17 14 11 14 14 16 15 15 16 15 14 15 15 19 18 19 21 23 22 23 22 18 16 17 17 17 18 17
14 14 15 16 16 16 15 15 15 14 13 14 14 13 13 12 11 10 11 11 10 10 9 8 7 6 6 6 5 6 6 6 7 6 6 6 5 5 5 4 5 5 6 7 7 7 9 8 8 8 8 9 10 9 11 14 16 16 16 11 12 14 16 16 16 15 15 15 15 16 17 19 23 23 22 23 22 21 19 17 15 15 16 18 18
17 16 17 15 15 15 15 15 13 14 13 13 12 13 12 11 10 11 11 10 9 8 8 7 6 6 6 6 5 5 6 5 5 5 5 5 4 4 4 4 5 5 6 7 7 7 7 8 8 8 8 8 8 10 11 13 15 16 15 13 9 12 13 14 14 14 15 15 15 15 16 19 23 23 23 23 22 22 20 16 17 15 16 19 19
14 17 17 15 14 14 15 14 13 14 13 11 13 12 11 10 10 12 11 8 8 8 7 7 7 7 7 6 5 4 4 4 4 4 4 4 3 3 3 4 5 5 7 7 7 6 6 7 7 7 8 8 8 9 10 12 14 15 15 15 10 10 11 9 11 12 15 15 15 15 14 18 23 23 22 22 22 21 21 16 16 21 22 22 18
15 15 15 16 14 15 15 14 13 13 12 12 14 13 11 10 11 11 8 8 8 7 8 8 7 7 6 6 5 5 4 3 3 3 4 4 2 3 3 4 4 5 6 7 8 7 7 7 6 7 7 7 8 7 8 10 13 14 14 15 14 12 13 10 10 10 12 12 12 13 14 20 21 21 21 21 20 21 19 17 23 22 21 22 17
18 19 17 16 15 14 13 13 12 11 11 11 13 12 11 11 12 8 7 7 7 8 8 8 7 7 6 6 5 4 4 3 4 3 3 2 2 2 3 4 4 5 5 6 7 7 7 8 8 8 7 7 7 7 7 8 11 13 13 14 14 14 14 11 10 9 10 10 12 13 14 19 18 19 19 19 18 19 17 22 21 22 21 18 12
18 18 17 16 17 17 14 13 11 12 10 11 11 12 12 12 9 8 9 8 8 7 8 8 8 7 6 6 5 4 4 3 3 3 2 2 2 1 3 3 3 4 5 6 6 6 7 7 7 8 8 8 8 7 8 9 11 10 11 12 13 13 14 13 9 9 10 9 11 15 16 16 16 16 17 17 16 18 21 20 22 21 21 14 13
16 17 17 15 15 15 15 14 12 12 11 10 10 11 12 10 8 8 8 9 8 8 8 8 8 7 7 6 6 5 4 3 3 2 1 1 1 1 2 3 3 4 4 5 6 6 6 7 7 7 8 8 8 8 9 10 10 11 11 11 12 11 11 13 11 9 11 12 12 14 14 15 15 15 14 13 13 14 18 18 19 21 16 12 12
17 16 15 13 13 13 14 15 13 12 11 9 10 9 10 8 8 7 8 8 9 9 8 6 7 6 6 6 6 5 5 4 3 2 2 1 1 0 0 1 2 3 4 4 5 5 6 6 6 7 7 7 8 9 9 10 10 9 10 10 10 10 11 10 11 10 11 11 12 12 12 12 11 13 13 11 13 15 15 16 13 13 13 13 13
14 14 13 12 13 15 15 15 13 9 7 8 9 9 9 8 8 8 7 8 8 8 8 7 7 6 6 6 6 4 4 4 4 3 2 2 1 1 1 1 2 2 3 4 4 5 5 5 6 6 7 7 8 9 9 10 9 9 9 9 9 10 10 9 10 11 11 11 11 11 11 12 12 13 14 14 14 13 13 13 12 12 14 13 15
16 14 14 13 13 13 13 12 9 8 9 8 9 7 8 9 8 8 8 8 7 7 7 7 6 5 5 5 5 5 5 4 3 3 2 2 1 1 1 1 1 2 2 3 3 3 4 4 5 6 6 7 8 9 9 9 9 9 7 8 9 9 9 9 11 13 10 10 9 10 11 12 13 13 13 14 14 14 13 13 14 13 13 14 13
13 11 12 12 14 13 12 13 10 10 10 9 9 8 7 8 8 7 8 8 7 6 6 6 6 6 5 5 5 4 4 4 3 3 3 2 3 3 3 2 0 3 1 2 3 3 4 4 4 4 3 5 6 6 9 11 11 11 12 12 11 12 12 11 14 17 10 8 9 9 10 12 12 16 14 14 14 14 13 12 12 14 13 14 14
13 14 12 15 14 13 13 13 11 10 10 9 8 8 8 7 8 8 8 8 8 6 6 5 5 6 6 6 5 4 4 3 3 3 2 2 2 4 6 7 7 4 4 5 6 8 6 6 4 4 2 6 7 8 9 9 10 11 12 12 12 12 13 14 14 9 7 9 9 10 10 10 11 14 12 13 12 13 13 12 12 10 10 12 12
Wind_Direction
76 76 76 80 78 78 85 88 93 84 81 85 98 98 94 94 88 87 92 97 93 89 70 77 90 97 82 82 86 76 78 76 68 64 66 63 59 57 53 47 43 40 36 36 37 31 22 360 347 343 341 324 317 318 325 323 324 323 318 313 304 302 306 298 293 302 297 288 290 295 295 284 278 271 272 270 270 268 265 263 262 260 255 251 247
81 72 78 81 85 84 67 73 77 81 76 80 73 90 90 79 86 89 83 74 72 77 88 82 67 52 88 97 98 84 83 79 76 65 68 66 59 59 58 54 50 45 39 42 43 39 31 24 19 16 360 351 336 330 332 325 323 321 315 309 311 311 302 316 317 312 291 317 320 315 306 292 258 254 254 268 272 270 268 263 260 256 256 254 250
68 88 84 91 91 82 81 85 73 86 83 79 82 78 72 80 77 67 61 68 71 68 73 74 70 77 96 99 100 93 73 81 80 71 64 63 54 50 49 49 50 44 40 39 37 31 31 27 24 12 3 355 338 336 338 337 343 328 316 310 309 296 288 283 284 291 311 316 301 299 317 326 313 263 236 254 247 252 253 259 258 256 255 252 249
91 99 99 97 95 92 86 83 86 90 82 76 70 76 69 71 68 72 69 69 78 76 84 84 85 86 82 80 75 75 88 83 80 73 62 57 51 46 50 47 47 45 40 40 40 37 30 27 22 19 17 5 348 336 340 340 341 334 329 319 306 307 317 292 288 306 292 316 318 332 310 308 304 303 321 308 274 256 251 262 257 261 262 255 244
123 110 104 92 80 77 73 74 61 66 64 67 58 74 71 78 78 71 67 61 59 54 78 101 107 99 91 82 69 66 54 49 64 62 53 53 54 46 39 43 40 39 38 39 40 36 30 26 25 27 20 20 9 344 336 337 326 324 326 317 322 321 315 310 306 309 294 258 296 309 310 287 297 307 315 298 259 267 259 246 247 254 257 256 250
111 99 96 89 91 88 79 72 77 74 69 60 68 70 74 72 70 75 68 56 55 54 50 67 98 123 127 120 111 99 78 60 59 60 58 54 55 48 47 47 45 39 38 40 38 37 34 25 20 19 14 18 15 14 11 7 358 358 347 338 332 332 321 314 308 296 295 297 270 259 260 276 294 299 303 305 276 260 275 265 254 253 255 257 256
107 108 101 97 94 94 82 76 69 89 92 94 87 80 75 66 56 58 64 65 53 51 43 71 98 96 97 95 101 104 104 85 73 66 68 63 50 52 51 49 46 43 37 38 37 39 36 32 29 24 25 21 15 15 14 7 360 356 345 343 335 322 308 303 301 302 300 284 275 276 265 258 268 285 295 306 304 299 255 264 265 260 257 257 258
128 116 107 99 92 95 99 87 80 84 85 84 75 69 68 66 66 61 61 59 55 56 67 76 89 93 96 95 92 92 93 99 86 78 70 60 56 50 53 55 54 47 42 38 35 34 34 34 29 24 26 25 19 21 10 2 355 353 349 340 333 333 328 316 314 311 309 304 307 307 298 279 270 268 268 269 282 296 299 273 261 266 259 258 260
106 115 109 103 102 94 94 90 89 86 76 76 79 79 79 77 75 72 67 65 61 72 82 80 83 86 89 93 92 88 92 90 88 75 66 56 54 50 49 50 60 57 43 40 36 34 36 33 29 26 23 22 16 10 6 359 357 355 354 342 332 326 320 311 307 312 314 311 311 299 294 288 284 277 279 271 275 303 301 301 299 290 261 261 245
103 111 108 105 107 102 93 95 89 83 80 85 86 84 82 82 78 77 72 68 71 80 82 82 81 81 81 82 87 87 85 82 66 64 57 54 53 49 48 49 48 50 39 35 34 33 33 32 30 28 26 19 16 10 0 353 355 353 351 344 338 335 325 322 323 317 310 306 301 305 305 306 303 302 291 294 293 288 288 298 301 300 295 283 269
126 126 118 111 105 104 99 95 99 96 92 93 87 88 87 85 84 80 75 73 67 70 76 77 74 73 74 73 72 72 68 64 67 57 53 48 45 48 50 53 52 52 33 32 34 27 31 30 24 21 21 18 11 7 3 349 342 329 326 332 337 339 334 336 335 328 323 319 314 304 300 299 300 298 299 297 290 292 291 291 297 297 297 295 285
128 127 123 122 112 103 103 102 101 101 100 96 94 92 88 86 87 84 78 77 74 72 70 68 68 66 65 61 59 53 52 54 54 53 49 54 52 56 57 57 60 62 41 37 30 22 26 27 24 21 19 10 6 354 347 345 337 333 335 340 339 332 329 334 325 327 332 322 315 316 311 306 299 297 298 296 296 299 301 297 296 299 295 283 288
134 132 129 128 114 106 97 102 105 101 101 101 96 91 86 82 81 85 82 82 82 78 73 68 65 62 59 61 60 58 60 64 66 67 63 62 58 57 56 57 55 61 49 41 34 26 25 24 23 17 9 4 355 352 346 346 347 346 348 348 346 340 343 340 327 327 323 316 321 318 310 308 306 303 298 299 298 295 290 291 288 289 290 295 292
140 139 137 132 120 113 107 105 101 104 110 105 100 95 93 91 88 84 79 77 79 76 72 69 64 61 60 61 60 57 63 63 66 67 66 66 63 60 58 57 57 51 50 45 31 28 29 27 24 19 12 3 359 354 351 352 0 354 358 359 351 349 347 343 336 337 332 331 330 320 320 318 317 316 314 307 303 299 290 285 290 292 286 287 290
143 143 140 131 124 118 118 115 106 107 109 100 99 94 92 89 88 86 81 72 72 72 69 67 63 60 59 58 61 71 70 70 66 65 65 68 66 65 59 56 57 51 45 39 32 29 27 26 24 21 14 9 5 3 0 5 4 7 7 2 356 353 348 346 342 342 339 338 332 328 322 317 319 322 319 312 305 293 291 298 300 298 295 286 287
142 138 136 126 120 123 123 122 123 123 118 113 106 103 97 94 90 85 80 75 72 73 72 71 69 66 63 62 63 65 71 70 67 65 66 65 63 62 60 57 56 56 51 45 37 32 28 24 23 20 13 10 8 9 10 10 12 14 10 4 359 354 345 344 343 339 339 337 334 331 327 321 319 318 319 317 312 306 298 296 296 292 288 291 292
147 143 138 131 127 126 121 123 122 119 111 100 93 94 102 104 99 91 84 78 74 74 76 76 75 72 67 65 63 63 61 60 60 58 57 58 62 61 58 54 52 49 50 43 40 39 35 29 25 19 16 11 10 12 12 13 16 17 11 9 5 353 345 343 340 341 337 335 335 334 328 320 320 323 316 311 308 302 299 292 288 285 289 288 290
149 142 126 123 126 121 115 110 113 115 113 102 95 92 89 91 95 93 84 79 76 77 77 77 77 76 74 68 65 64 64 61 59 59 58 58 58 60 57 55 51 50 47 42 40 37 34 30 27 22 18 16 14 12 11 11 8 12 8 8 5 359 357 352 347 342 340 338 337 334 330 324 327 328 327 319 313 310 305 306 303 288 282 287 285
149 141 128 126 126 128 121 116 111 104 98 99 101 99 94 86 81 83 84 82 83 81 81 80 79 78 74 72 68 67 64 62 61 60 58 57 57 58 59 57 49 44 42 41 38 35 32 29 26 23 19 18 17 15 11 10 8 9 10 8 5 1 1 358 358 353 349 344 340 336 335 336 341 332 327 330 330 331 334 334 326 324 312 293 288
149 136 129 125 130 130 122 118 117 114 113 109 103 99 94 90 88 87 88 88 84 80 82 84 81 81 79 74 68 66 63 60 58 57 59 58 57 58 57 55 49 44 44 41 39 36 32 30 27 24 21 18 18 16 12 11 10 10 7 6 4 1 1 358 354 353 350 347 344 342 341 341 340 333 332 334 334 333 332 328 329 329 325 320 308
136 131 130 134 139 132 116 111 112 111 108 106 105 102 99 96 91 92 94 91 85 83 83 82 80 77 77 75 72 66 66 64 61 60 63 60 58 56 53 54 50 47 42 41 38 34 31 28 26 24 21 18 16 15 12 10 11 8 5 4 2 2 1 358 350 350 352 347 344 340 340 342 340 334 337 336 335 335 336 334 334 334 327 327 324
132 131 136 139 136 121 115 115 115 111 108 106 104 106 103 98 98 97 94 91 91 87 85 82 78 76 79 81 77 70 67 64 63 60 60 60 58 54 53 52 53 46 42 41 38 34 32 31 30 27 23 18 15 14 11 9 9 6 5 4 1 358 1 0 356 352 349 348 343 341 340 343 341 337 339 340 338 337 338 335 336 334 327 326 329
143 142 141 136 131 127 124 122 118 115 112 107 105 104 101 101 101 99 97 93 92 91 87 84 82 80 79 79 77 73 70 65 63 60 58 57 57 56 51 53 50 47 43 39 36 37 35 36 35 32 27 21 16 13 11 10 9 5 3 1 358 359 359 356 355 354 352 349 347 345 344 343 340 339 343 342 340 340 337 333 330 330 325 323 323
131 134 133 131 132 129 124 123 120 115 110 109 111 108 104 103 104 104 101 100 97 93 90 87 84 82 80 80 78 74 68 64 63 60 58 55 55 54 52 51 50 45 44 41 40 38 40 38 38 35 32 26 20 15 12 12 10 4 3 0 359 359 356 355 354 351 351 350 348 346 346 345 342 341 343 344 343 341 338 334 330 327 325 322 320
139 141 138 135 138 136 130 127 120 116 115 117 115 109 108 106 106 106 103 101 98 96 94 89 87 86 83 81 78 73 69 64 62 59 57 55 52 52 49 48 46 46 42 41 39 37 39 40 38 36 33 30 26 17 13 10 9 3 2 1 359 358 355 354 353 351 351 351 348 346 345 345 344 341 342 343 341 340 338 334 331 328 327 323 320
148 142 139 142 143 133 127 122 120 120 122 121 114 111 109 107 106 106 107 104 99 99 97 94 90 88 86 81 77 72 67 64 62 59 55 53 51 49 50 48 44 44 43 42 41 37 36 38 38 37 35 33 29 22 16 10 4 1 359 360 358 355 353 351 351 350 351 353 350 347 345 346 344 343 342 341 340 338 336 333 331 329 326 323 320
150 145 141 136 134 130 126 124 124 126 127 125 120 117 116 115 109 104 104 104 105 104 100 96 91 89 86 81 76 71 67 64 61 58 58 57 54 52 51 50 47 47 45 42 38 39 35 36 38 37 36 33 30 27 21 13 5 1 356 356 356 354 354 353 349 350 349 350 352 351 347 346 343 342 342 341 339 338 335 331 330 327 325 324 318
141 141 145 142 134 129 129 129 127 128 129 122 120 121 121 118 112 107 106 105 105 106 103 98 95 90 86 80 73 71 68 65 65 65 62 59 56 54 52 49 47 47 44 41 36 34 35 34 36 38 36 34 30 27 22 14 5 359 353 356 356 354 355 354 354 354 354 352 349 349 348 345 342 341 341 339 340 337 333 328 328 326 324 322 319
150 151 147 140 139 136 135 135 133 134 129 122 119 117 112 106 108 107 107 108 111 109 106 101 96 90 84 81 80 72 71 71 68 66 62 58 57 54 52 50 49 48 44 40 38 36 34 34 36 38 37 34 31 24 17 9 7 358 354 354 354 354 352 351 352 355 355 353 352 349 346 344 340 340 338 336 336 334 332 329 325 324 320 318 315
157 153 146 142 139 139 140 137 139 137 132 130 129 129 125 120 116 114 112 114 113 108 109 104 99 94 90 89 87 81 77 72 66 62 58 56 53 52 50 50 48 47 45 39 38 37 34 32 33 34 37 34 30 23 3 1 5 1 351 352 353 354 353 352 352 354 355 355 351 347 341 340 339 339 339 337 334 327 327 323 317 317 316 313 309
153 147 145 141 141 141 140 140 141 139 136 135 132 127 122 119 119 117 115 117 114 112 108 107 102 99 98 96 91 84 77 69 62 59 57 53 52 51 51 50 48 45 43 40 37 37 33 29 32 35 35 36 30 13 358 1 357 357 353 346 353 352 352 352 358 358 357 353 350 348 343 341 341 342 340 337 332 329 324 316 309 304 300 297 304
150 148 146 145 146 145 145 145 142 139 136 134 132 132 128 126 123 119 118 118 111 110 109 107 105 102 102 100 96 89 77 68 62 58 55 54 52 51 51 48 47 44 42 41 39 35 33 29 29 35 36 32 28 10 358 358 355 352 351 342 353 352 349 357 3 360 357 353 350 347 345 343 342 342 341 339 336 330 325 318 310 302 295 284 269
151 152 153 153 151 149 147 143 141 142 141 141 138 135 131 130 124 122 120 116 112 111 110 107 104 104 104 102 100 92 83 73 65 60 56 53 50 50 48 47 45 43 43 42 36 34 30 27 25 31 35 31 26 10 356 358 355 352 347 336 354 351 358 7 3 360 357 354 352 348 346 344 343 343 343 342 337 331 327 322 315 309 302 301 298
153 155 154 152 146 146 146 146 145 144 139 138 137 130 128 126 124 125 122 118 117 113 110 109 109 109 109 107 104 95 86 77 69 63 59 55 53 50 47 46 45 44 44 42 37 34 29 25 21 25 34 30 25 5 359 358 357 351 344 327 356 3 7 5 3 2 358 357 354 352 347 345 345 344 344 344 338 334 329 325 323 322 320 317 309
155 157 157 152 145 142 141 140 140 136 133 131 128 127 126 127 128 126 123 120 118 117 114 114 113 114 114 111 104 96 89 82 74 68 64 59 53 51 49 45 46 44 42 41 33 32 25 22 19 17 26 28 24 8 2 359 357 352 339 324 11 7 6 9 7 5 2 360 357 354 352 350 347 345 347 343 338 335 329 324 321 321 321 320 316
164 159 156 150 148 146 145 142 138 137 138 137 134 135 132 130 131 125 123 123 124 122 121 121 120 119 115 110 104 98 94 88 81 72 67 63 57 51 46 43 47 48 47 44 42 34 27 24 19 17 16 15 21 14 3 360 355 355 333 360 12 11 13 10 8 6 4 2 359 357 355 353 349 346 347 339 336 334 333 329 326 323 323 319 318
155 152 151 147 141 142 142 138 141 140 139 138 139 139 133 132 129 128 129 131 131 130 131 131 127 123 117 111 107 103 99 93 83 76 69 63 60 53 47 39 47 47 43 40 38 35 32 26 20 20 12 9 14 15 4 0 356 355 344 13 12 16 12 9 9 6 4 2 360 356 355 354 351 349 344 336 335 335 338 334 329 327 324 322 322
139 138 139 138 138 136 139 141 141 142 142 141 143 139 138 135 134 136 137 138 140 138 140 138 131 126 121 116 112 109 105 96 85 79 73 68 64 61 55 39 46 45 43 36 33 36 36 31 24 22 12 4 8 14 7 359 357 356 348 6 16 15 12 10 8 7 4 1 358 357 355 355 352 348 340 337 338 341 343 337 335 332 329 328 328
145 148 148 145 144 144 144 141 142 143 144 145 145 143 142 140 141 144 145 146 148 147 147 142 135 131 126 122 117 113 107 99 92 81 74 71 66 63 56 50 48 51 46 44 36 38 37 33 27 19 9 6 6 7 8 359 357 357 356 3 15 13 10 10 7 6 5 1 359 357 356 353 348 342 337 340 340 345 344 340 339 333 331 330 328
145 147 145 140 137 137 143 145 148 148 149 149 148 147 145 144 147 148 152 154 155 155 148 140 139 137 133 130 126 119 112 104 98 91 79 74 72 69 59 54 51 49 49 43 42 40 39 34 24 18 18 14 6 1 6 357 358 354 359 351 14 13 8 5 6 5 2 3 1 359 359 356 344 340 340 340 341 342 346 343 341 338 333 330 325
152 145 139 141 147 147 147 149 147 147 150 152 150 148 149 148 149 155 158 158 155 149 148 147 145 144 142 138 133 127 120 107 101 97 91 82 71 71 61 55 54 50 47 44 39 38 40 37 29 22 19 16 13 358 358 358 356 353 355 358 0 11 5 2 3 3 6 4 3 2 0 349 342 337 338 340 341 343 343 347 347 338 332 323 326
139 140 144 143 142 142 146 148 146 150 152 154 153 150 150 151 158 163 160 153 152 152 152 151 153 151 147 145 139 128 125 123 121 117 106 93 86 75 61 53 52 47 46 45 38 36 38 35 34 27 23 15 6 2 359 358 355 350 350 1 7 4 355 344 353 4 8 8 2 1 355 343 336 335 335 338 341 345 343 351 342 336 334 339 340
138 148 147 143 145 150 152 148 149 152 155 157 156 153 154 157 167 161 151 156 157 156 158 157 156 154 154 152 147 147 144 141 134 130 115 105 101 83 67 52 42 43 43 41 35 30 30 31 30 27 22 16 5 5 7 358 354 348 352 357 0 0 351 350 352 356 358 355 353 349 345 337 333 333 336 337 341 346 351 347 339 341 341 343 341
153 152 151 145 146 148 146 149 153 155 156 158 158 155 158 166 165 143 148 150 155 161 161 159 159 159 157 159 159 157 151 151 150 152 142 122 95 76 63 47 35 34 37 39 35 29 27 26 23 19 20 14 8 2 2 3 350 349 348 355 356 355 359 359 347 0 354 351 351 349 335 326 328 334 337 340 342 353 350 345 344 344 346 347 343
151 153 153 151 150 153 150 151 154 156 158 162 162 157 160 169 148 142 153 157 158 161 167 168 168 165 164 163 167 165 161 165 164 176 156 132 108 65 63 52 35 40 35 38 34 28 25 20 20 17 13 10 5 4 3 2 350 344 344 351 350 356 350 348 349 360 353 349 332 326 325 329 330 337 339 347 354 355 349 348 349 349 354 353 348
146 147 153 150 143 145 150 154 158 162 163 167 166 160 165 165 143 158 159 158 158 164 172 178 174 170 170 169 173 173 176 173 181 191 169 93 64 56 45 46 39 38 39 37 30 25 21 18 18 16 10 5 5 8 7 3 357 351 350 350 341 348 346 335 334 350 328 325 336 332 331 335 345 347 350 356 354 351 344 349 354 359 0 353 347
149 151 143 136 141 147 155 157 161 168 167 169 164 167 164 147 153 158 161 161 165 167 169 172 176 174 167 177 179 184 185 186 197 199 190 180 190 278 353 17 32 33 35 32 27 21 19 13 11 6 1 4 12 13 9 3 0 354 353 354 358 356 347 343 357 355 347 354 346 341 334 322 333 328 339 341 355 353 352 356 355 360 357 357 353
139 143 142 137 147 155 158 161 164 166 160 161 170 169 156 151 152 155 161 164 164 171 171 177 178 177 177 182 192 162 188 193 198 205 204 193 201 238 281 342 12 23 13 26 16 16 12 8 0 0 359 8 13 16 12 2 354 353 351 352 359 357 356 355 357 352 343 347 346 341 347 358 357 1 4 8 8 5 360 355 354 358 358 354 356
149 150 147 149 152 154 158 160 155 159 167 171 169 156 154 152 152 155 160 166 172 173 178 172 172 177 178 177 193 187 202 202 193 205 225 249 265 213 249 312 228 284 312 330 356 351 356 357 344 354 356 5 10 14 6 340 329 336 348 352 358 359 353 352 345 331 324 349 349 356 1 1 5 7 5 4 2 1 357 354 352 354 357 356 358
142 139 146 144 154 150 153 163 160 164 171 173 166 158 157 156 152 159 164 166 164 167 178 179 177 184 175 178 192 190 191 198 198 201 200 192 173 234 280 286 1 128 177 320 270 293 341 328 320 338 357 352 4 352 325 322 334 345 350 352 347 342 342 345 340 327 323 355 358 2 4 4 4 13 5 3 358 360 357 355 357 356 357 359 356
140 144 147 154 158 158 156 161 160 165 170 171 164 159 154 155 156 159 164 163 162 167 177 173 172 185 182 186 184 186 189 192 192 200 202 209 194 174 208 233 265 262 238 225 219 245 263 256 264 312 329 211 259 281 302 327 339 347 349 347 346 340 342 341 341 330 359 10 6 7 6 5 6 10 6 1 356 357 356 354 349 339 342 354 354